Regional Weather Roundup
Issued by NWS Charleston, SC

Current Version | Previous Version | Graphics & Text | Print | Product List | Glossary On
Versions: 1 2 3 4 5 6 7 8 9 10 11 12 13 14 15 16 17 18 19 20 21 22 23 24 25 26 27 28 29 30 31 32 33 34 35 36 37 38 39 40 41 42 43 44 45 46 47 48
000
ASUS42 KCHS 271012
RWRCHS

REGIONAL WEATHER ROUNDUP
NATIONAL WEATHER SERVICE CHARLESTON SC
600 AM EDT MON MAR 27 2017

NOTE: "FAIR" INDICATES FEW OR NO CLOUDS BELOW 12,000 FEET WITH NO
SIGNIFICANT WEATHER AND/OR OBSTRUCTIONS TO VISIBILITY.

NOT ALL STATIONS ARE QUALITY CONTROLLED. USE DATA WITH CAUTION...
ESPECIALLY DEWPOINT OBSERVATIONS.

SCZ027-030-031-034>040-042>050-271100-
...SOUTHEAST SOUTH CAROLINA...

CITY           SKY/WX    TMP DP  RH WIND       PRES   REMARKS
N CHARLESTON   CLEAR     59  55  87 CALM      30.11R
WATERFRONT PRK   N/A     63  60  90 CALM      30.10R
JOHNS ISLAND   FAIR      59  57  94 CALM      30.11R
PINOPOLIS        N/A     61  57  88 CALM      30.01S
MONCKS CORNER  FAIR      52  50  93 CALM      30.11R
SUMMERVILLE    FAIR      54  54 100 CALM      30.12R
BEAUFORT MCAS  PTCLDY    58  58 100 CALM      30.11R FOG
BEAUFORT ARPT  FAIR      59  57  94 CALM      30.10R
HILTON HEAD IS NOT AVBL
WALTERBORO     FOG       52  52 100 CALM      30.12R VSB 1/2
ALLENDALE      FAIR      59  59 100 CALM      30.09S

...SOUTHERN MIDLANDS AND PEE DEE...

CITY           SKY/WX    TMP DP  RH WIND       PRES   REMARKS
GEORGETOWN     FAIR      52  50  93 CALM      30.12S FOG
KINGSTREE      FAIR      52  48  87 CALM      30.11S
ORANGEBURG     MOCLDY    58  57  97 CALM      30.11R
BARNWELL       FAIR      59  57  94 CALM      30.10R
AIKEN          FAIR      57  55  94 S6        30.13R
MANNING        FAIR      55  54  94 S3        30.11R
COLUMBIA       CLEAR     62  57  83 S3        30.09R
SUMTER         CLEAR     56  54  93 CALM      30.09R
FLORENCE       MOCLDY    59  58  96 S3        30.11R
MYRTLE BEACH   NOT AVBL
N MYRTLE BEACH CLEAR     56  55  97 CALM      30.11S

$$

GAZ063-065-086>088-099>101-113>116-118-119-134>141-150-271100-
...SOUTHEAST GEORGIA...

CITY           SKY/WX    TMP DP  RH WIND       PRES   REMARKS
SAVANNAH ARPT  PTCLDY    58  55  90 CALM      30.11R
HUNTER AAF     CLEAR     60  60 100 CALM      30.08R
FORT STEWART   PTCLDY    55  54  94 CALM      30.08R
STATESBORO     CLOUDY    61  32  33 SE3       30.10R
SYLVANIA       SUNNY    N/A N/A N/A CALM      30.11R FOG
CLAXTON        FAIR     N/A N/A N/A CALM      30.10S

...CSRA...CENTRAL AND FAR SOUTHEAST GEORGIA...

CITY           SKY/WX    TMP DP  RH WIND       PRES   REMARKS
THOMSON        PTCLDY    60  57  89 W5        30.13S
AUGUSTA-BUSH   CLEAR     58  56  93 CALM      30.09R
AUGUSTA-DANIEL CLEAR     60  56  86 SE3       30.09R
SWAINSBORO     CLOUDY    63  61  94 SE5       30.10R
VIDALIA        CLOUDY    63  61  94 CALM      30.09S
EASTMAN        CLOUDY    64  52  66 CALM      30.11R
HAZLEHURST     FAIR      63  63 100 S6        30.08R
ALMA           CLOUDY    61  60  97 SE3       30.09R
WAYCROSS       PTCLDY    60  60 100 CALM      30.09R
JESUP          FAIR      55  52  88 CALM      30.10R
BAXLEY         FAIR      61  61 100 CALM      30.09R
BRUNSWICK      FOG       55  55 100 CALM      30.11R VSB 1/2
SAINT SIMONS   CLEAR     63  60  90 CALM      30.09R

$$

SCZ027-028-034-036>038-045-046-048>050-GAZ119-141-271100-
...LAKE AND SUPPLEMENTAL COASTAL OBSERVATIONS...

STATION/POSITION TIME  TEMP    WIND        PRES    WAVE   SWELL
                       AIR SEA DIR/SP/G            HT/PER HT/PER/DIR
                 (UTC) (F)     (DEG/KT/KT) (MB)    (FT/S) (FT/S/D)
WINYAH BAY       0845   57     320/  2     1019.0
LAKE MURRAY      0920   62     200/  3/  5 1018.3R
ACE BASIN NERRS  NOT AVBL
FORT PULASKI     0948   63 63  160/  3/  5 1019.3R
SAPELO ISLAND    0900   63        CALM     1019.0

$$

ANZ835-935-AMZ111-154-330-350-352-354-370-450-454-472-271100-
...C-MAN AND BUOY OBSERVATIONS...

STATION/POSITION TIME  TEMP    WIND        PRES    WAVE   SWELL
                       AIR SEA DIR/SP/G            HT/PER HT/PER/DIR
                 (UTC) (F)     (DEG/KT/KT) (MB)    (FT/S) (FT/S/D)
BUOY 41004       0850   71 74  170/ 12/ 14 1018.7    4/ 9   3/150/ 9
BUOY 41008       0850   64 63  140/  4/  4 1018.6    4/10   3/ 90/10
FOLLY BEACH CMAN 0900   63     150/  5/  5 1019.6F
CAPERS NEARSHORE 0908   62     190/  4/  6 1018.9F
FRIPP NEARSHORE  0908   63 62  150/  6/  8 1018.7


STATION/POSITION TIME  TEMP    WIND        PRES    WAVE   SWELL
                       AIR SEA DIR/SP/G            HT/PER HT/PER/DIR
                 (UTC) (F)     (DEG/KT/KT) (MB)    (FT/S) (FT/S/D)
5E ST. MARYS GA  0930      65                N/A     3/ 9   2/130/11
FRYING PAN BUOY  0950   71 76  160/ 10/ 14 1019.6R   4/ 9   3/120/ 9
BUOY 41025       0950   70 76  190/ 12/ 16 1020.8F   3/10   3/140/10
CAPE LOOKOUT NC  0900   63     170/  3/  3 1020.0F
BUOY 41002       0950   68 72   90/ 12/ 16 1020.2F   5/ 9   5/120/ 9
BUOY 41010       NOT AVBL
ST AUGUSTINE FL  1000   65 69  220/  1/  2 1019.6R


$$




USA.gov is the U.S. government's official web portal to all federal, state and local government web resources and services.